Temperature
26 28 28 29 29 29 29 29 29 30 30 30 30 30 30 28 27 27 25 24 23 22 21 19 18 18 18 18 18 18 18 17 17 17 17 17 17 17 17 17 17 17 17 17
27 27 29 29 29 28 28 28 29 30 30 29 30 30 30 28 27 26 25 24 23 22 21 19 19 18 18 18 18 18 18 17 17 17 17 17 17 17 17 17 17 17 17 17
28 29 29 28 27 27 28 28 29 29 29 30 29 30 30 29 27 26 25 24 23 23 21 20 19 19 18 18 18 18 18 17 17 17 17 17 17 17 17 17 17 17 17 17
28 29 28 27 28 28 28 29 29 28 29 30 29 29 30 30 28 27 26 25 24 23 21 20 19 19 19 18 18 18 18 17 17 17 17 17 17 17 17 17 17 17 17 17
28 28 27 27 28 28 29 29 29 29 29 29 29 29 30 30 29 28 27 25 24 23 22 20 19 19 19 18 18 18 17 17 17 17 17 17 17 17 17 17 17 17 17 17
29 29 29 29 29 29 29 28 28 28 29 28 29 29 29 30 29 29 27 25 24 23 22 20 19 19 18 18 18 17 17 17 17 17 17 17 17 17 17 17 17 17 17 17
27 28 29 29 28 28 28 28 28 28 28 28 29 28 29 30 29 28 27 25 24 22 22 20 19 19 18 18 18 17 17 17 17 17 17 17 17 17 17 17 17 17 17 17
27 28 28 29 29 29 28 28 28 28 28 29 28 28 30 29 28 27 26 25 24 23 22 21 20 19 18 18 18 17 17 17 17 17 17 17 17 17 17 17 17 17 17 17
29 28 29 29 29 29 28 28 30 29 28 28 29 29 30 29 28 27 26 25 24 23 22 21 20 19 18 18 18 18 17 17 17 17 17 17 17 17 16 17 17 17 17 17
29 28 29 29 29 28 29 29 29 28 27 27 28 29 29 29 28 28 27 25 24 23 22 21 20 19 18 18 18 17 17 17 17 17 17 17 17 17 17 16 16 16 16 16
29 28 28 28 28 28 28 28 28 29 29 28 28 29 30 30 28 28 27 25 24 23 22 21 20 19 18 18 18 17 17 17 17 17 17 17 17 17 17 16 16 16 16 16
28 28 28 29 29 29 29 29 28 28 27 28 28 29 29 29 28 28 27 25 24 23 22 21 19 19 18 18 18 17 17 17 17 17 17 17 17 17 16 16 16 16 16 16
27 27 26 27 28 28 28 29 29 29 28 28 28 29 28 28 27 26 26 24 23 22 21 20 19 19 18 18 18 17 17 17 17 17 17 17 16 16 16 16 16 16 16 16
26 27 27 28 29 29 28 28 29 28 28 28 28 29 28 28 27 26 25 23 22 21 20 20 19 18 18 18 17 17 17 17 17 16 16 16 16 16 16 16 16 16 16 16
26 27 27 28 29 29 29 29 28 28 29 29 29 29 30 29 27 25 24 23 22 21 20 19 19 18 17 17 17 17 17 16 16 16 16 16 16 16 16 16 16 16 15 15
25 26 27 27 28 28 28 28 28 28 29 29 29 29 29 27 25 24 23 23 22 21 20 19 18 18 17 17 17 17 16 16 16 16 16 16 16 16 15 15 15 15 15 15
26 25 25 26 27 27 27 28 28 28 29 29 28 29 27 26 25 24 23 22 21 20 19 19 18 17 17 17 17 16 16 16 16 16 16 16 16 15 15 15 15 15 15 15
24 24 25 26 26 25 27 28 28 28 28 28 28 27 26 25 22 21 21 21 20 19 18 18 17 17 17 17 17 16 16 16 16 16 16 15 15 15 15 15 15 15 15 14
23 24 25 25 25 26 26 26 26 26 27 27 27 26 24 22 21 20 19 19 18 18 18 17 17 17 17 16 16 16 16 16 16 15 15 15 15 15 15 14 14 14 14 14
22 23 24 24 24 24 26 26 25 25 25 26 25 24 23 23 25 22 18 17 17 17 17 16 16 17 16 16 16 16 16 15 15 15 15 15 14 14 14 14 14 14 13 13
22 22 23 24 24 25 25 24 24 24 25 23 23 23 23 23 22 19 17 16 16 16 16 16 16 16 16 16 16 15 15 15 15 14 14 14 14 14 14 14 13 13 13 12
23 23 23 23 23 24 23 23 24 22 21 21 21 21 20 19 17 17 16 16 15 15 15 15 15 15 15 15 15 15 15 15 14 14 14 14 13 13 13 13 13 12 12 12
22 23 23 23 23 20 20 20 19 19 19 19 19 19 18 18 17 16 15 15 15 14 14 14 14 14 15 14 14 14 14 14 14 14 13 13 13 13 13 13 12 12 11 11
21 20 21 21 22 20 19 18 17 17 18 18 18 17 17 17 16 16 15 14 14 14 14 14 14 14 14 14 14 14 14 14 13 13 13 13 12 12 12 11 11 11 11 10
21 20 21 21 21 19 18 18 17 16 16 16 16 16 16 16 15 15 14 13 13 13 13 13 13 13 13 13 13 13 13 13 13 12 12 11 11 11 11 10 10 10 10 10
20 20 20 20 20 20 19 17 16 15 15 15 15 14 14 14 14 13 13 12 12 12 12 12 12 12 12 12 12 12 12 12 12 11 11 11 10 10 10 9 9 9 9 8
Wind_Speed
10 11 13 12 12 9 6 8 8 6 5 8 7 7 3 1 3 4 5 5 6 7 9 10 11 12 13 13 14 14 14 13 12 10 10 9 9 8 8 7 8 9 9 8
9 15 14 9 8 10 10 11 9 5 3 6 8 8 3 2 2 2 4 5 6 7 9 10 12 12 13 14 14 14 14 14 13 10 9 8 7 7 7 6 7 9 9 9
15 4 8 11 12 12 12 11 8 7 7 6 8 8 4 4 3 3 4 5 6 8 10 11 11 12 13 13 14 14 15 14 13 12 9 8 7 6 7 7 7 9 9 9
14 10 7 12 13 13 12 9 8 7 8 5 4 8 3 3 4 5 5 6 7 8 9 10 10 11 12 12 13 13 14 14 13 12 11 12 11 10 9 8 7 8 9 9
11 11 12 13 13 13 9 4 6 7 8 9 7 8 4 3 3 3 6 7 7 8 8 9 10 10 10 11 11 11 12 13 13 14 13 12 12 10 8 8 8 8 8 8
10 7 10 11 10 11 7 6 6 8 9 11 7 8 6 2 2 1 4 7 8 7 8 8 8 9 9 10 10 11 12 12 13 14 13 13 13 11 10 10 9 9 7 7
13 13 11 10 10 10 11 10 8 9 9 8 3 6 5 1 0 1 3 6 8 8 8 8 8 8 9 10 11 12 12 12 12 13 13 13 12 12 12 11 10 9 8 8
13 12 15 14 16 11 15 15 10 7 7 5 6 6 2 2 2 2 3 6 8 9 9 9 8 8 8 9 11 11 12 12 12 12 12 11 12 11 10 11 9 9 8 8
10 8 9 11 13 14 13 15 14 11 9 8 5 4 4 5 4 4 5 7 9 9 9 9 9 9 9 9 10 10 11 11 11 11 10 10 11 10 10 10 10 8 7 8
7 7 9 8 8 11 11 11 9 11 9 9 8 7 5 5 6 6 7 8 9 9 9 9 9 9 8 8 8 9 10 10 10 10 9 8 9 9 9 9 10 9 9 8
12 9 9 10 11 13 11 11 10 10 10 9 7 4 1 3 5 7 7 8 9 10 9 9 8 8 8 8 8 8 9 9 9 9 9 8 9 9 10 9 10 9 9 10
13 9 11 11 6 5 13 13 13 11 10 10 10 4 6 4 4 5 7 8 8 9 9 10 9 9 8 8 8 8 8 9 8 8 8 8 8 8 9 9 9 9 9 9
10 9 11 11 10 9 11 13 14 13 10 11 12 5 8 6 6 6 7 8 9 9 10 10 9 9 9 8 8 8 8 8 8 8 8 8 8 8 8 8 9 9 9 8
7 9 13 14 9 11 13 14 14 14 13 13 13 9 6 7 7 8 8 9 10 9 9 10 9 9 8 8 7 7 7 7 8 8 8 8 8 8 8 8 8 8 8 8
7 11 13 13 8 7 12 13 15 16 16 14 11 11 7 7 7 8 8 9 10 10 9 9 9 9 8 8 7 7 7 7 7 8 8 8 7 7 8 8 8 8 8 8
6 8 10 12 11 11 13 13 14 16 15 14 12 10 2 5 7 8 9 10 10 10 9 9 8 9 9 8 8 7 7 7 7 8 8 8 8 8 8 8 8 8 8 8
8 8 10 14 11 11 16 15 15 14 13 13 14 7 6 7 7 8 9 9 9 8 8 8 8 8 7 7 7 7 7 7 8 8 8 8 8 8 9 9 9 9 9 9
7 10 9 12 11 16 10 3 8 12 11 10 7 2 4 6 7 6 6 7 8 7 7 6 5 6 6 6 7 7 7 8 8 8 8 8 8 8 8 9 9 9 9 9
8 9 10 12 15 16 8 5 7 10 11 9 8 6 7 10 10 7 6 6 6 6 5 5 5 5 5 6 7 7 8 8 8 8 8 8 9 9 9 10 10 9 10 10
8 9 12 12 15 16 9 5 3 6 11 6 7 8 9 11 9 6 7 7 7 6 5 4 4 4 5 5 6 8 8 8 8 8 8 8 9 10 10 10 10 10 10 11
13 12 15 15 15 12 2 4 5 10 4 3 5 7 8 5 3 9 9 7 6 5 5 4 4 4 3 5 6 7 7 7 7 8 8 8 9 10 11 10 10 11 11 12
13 13 14 14 16 12 4 4 5 1 4 3 4 5 5 7 9 9 8 7 6 5 5 4 4 3 3 4 6 7 7 7 7 8 9 9 10 9 10 12 11 12 13 13
9 6 7 7 4 4 2 1 3 2 2 3 4 5 6 7 6 6 6 5 5 4 4 3 4 4 3 2 4 6 6 7 9 9 10 10 11 10 10 11 12 11 10 10
5 2 4 5 3 1 1 2 2 2 2 3 3 4 5 5 5 5 4 4 4 4 4 4 4 4 4 3 3 5 6 8 10 11 11 11 11 11 10 8 8 9 9 10
4 5 6 7 4 2 3 2 3 3 3 4 4 3 3 4 4 4 4 4 3 3 3 4 4 4 4 4 5 5 7 9 11 12 11 11 11 11 11 10 8 8 8 7
7 7 7 5 1 2 2 3 3 3 3 3 4 4 3 3 4 5 4 4 4 4 4 5 5 5 5 5 6 6 8 10 12 12 11 10 11 11 11 12 13 19 16 18
Wind_Direction
195 218 222 221 228 260 273 267 268 280 312 302 291 297 300 238 220 206 196 192 195 197 180 176 179 181 181 183 183 186 187 183 182 182 185 188 189 192 195 199 196 200 204 195
200 226 230 233 231 239 247 256 260 266 301 297 295 289 273 198 215 215 202 194 191 183 173 175 177 182 186 187 188 190 190 186 186 186 188 190 189 194 198 196 191 203 202 199
214 216 214 214 218 227 237 248 261 282 297 253 282 262 218 190 188 190 197 193 189 184 180 177 181 185 188 190 190 191 190 187 188 185 183 181 180 191 195 197 194 199 201 202
229 221 201 211 220 227 237 241 257 270 273 266 282 288 250 206 216 203 195 190 183 178 181 182 184 188 192 192 189 188 189 188 187 187 189 188 194 198 200 197 192 193 199 202
215 215 212 219 223 224 240 238 250 261 264 272 253 273 274 207 253 215 195 190 180 175 179 183 185 188 191 188 187 184 184 186 190 195 195 196 202 203 196 195 190 198 197 202
232 210 221 228 227 222 218 221 233 245 250 252 255 270 277 276 306 227 178 183 177 176 177 176 177 180 185 184 182 181 181 186 190 194 197 201 203 202 199 197 192 200 197 198
221 219 216 218 207 196 207 219 223 224 227 241 202 257 274 355 312 255 192 181 179 176 174 171 173 177 179 182 180 179 180 186 190 193 197 201 201 202 204 203 200 203 200 197
208 211 205 209 218 206 208 222 236 246 240 225 187 247 261 120 148 170 176 170 172 174 172 169 169 171 176 178 179 179 181 186 190 193 198 201 202 206 207 206 202 205 206 201
210 203 179 204 215 223 213 226 239 256 266 266 242 244 235 173 180 173 161 162 169 171 168 165 164 165 168 172 175 179 180 186 191 194 195 200 203 209 207 200 202 203 203 199
225 211 180 177 190 212 233 223 220 234 241 248 241 240 244 197 193 177 171 169 169 168 169 164 164 166 165 166 169 175 180 186 190 191 195 198 201 202 200 197 197 199 198 193
226 223 187 183 203 192 195 209 221 230 244 256 256 242 143 186 179 179 175 171 169 170 168 164 162 161 163 164 166 171 177 183 186 188 190 195 198 196 194 193 194 193 191 188
212 225 223 209 199 221 211 214 213 224 229 244 267 265 117 153 161 169 164 162 162 161 161 161 158 158 164 167 169 173 177 182 184 184 184 186 191 195 193 191 190 187 187 185
187 211 219 212 202 205 219 221 222 234 245 243 249 245 131 153 165 160 156 157 156 156 160 160 161 165 166 168 169 171 178 180 180 179 180 179 184 185 184 183 179 178 180 178
202 221 232 236 228 198 209 214 217 225 232 237 243 256 178 180 177 165 158 158 159 160 163 165 164 165 166 169 171 172 174 176 179 178 180 180 180 177 174 171 168 169 169 170
212 225 231 250 258 235 228 223 216 224 239 250 248 248 237 191 180 168 161 158 159 162 165 167 166 165 168 168 171 173 172 171 175 178 180 179 174 171 166 159 156 155 154 155
216 239 230 234 235 235 238 234 226 226 236 245 254 252 184 147 156 160 163 162 160 162 166 166 167 169 173 173 174 175 174 173 175 179 181 173 166 165 163 157 150 144 140 138
211 224 232 236 225 231 235 231 228 227 231 238 243 241 165 163 161 162 161 161 157 155 159 165 168 171 174 177 178 177 176 175 175 175 172 167 165 163 160 155 149 144 140 135
226 229 234 239 226 236 239 223 238 240 237 238 248 217 175 151 134 132 145 150 147 146 147 151 157 165 173 177 177 177 174 175 174 171 168 165 162 157 153 148 144 141 138 133
225 226 234 236 233 236 225 213 222 230 236 229 226 194 155 142 137 121 117 124 128 133 140 143 148 158 168 175 177 177 174 172 172 170 166 163 159 153 148 146 141 137 131 124
203 222 234 232 241 243 236 171 199 238 236 210 204 187 172 177 199 144 128 124 120 120 122 128 139 151 158 172 177 174 174 172 173 167 159 155 152 146 141 138 134 128 124 121
203 211 227 234 238 243 147 141 187 226 237 136 179 180 183 185 66 114 121 115 116 117 117 122 130 131 150 170 172 170 168 172 167 155 150 147 143 139 135 129 127 125 122 117
216 218 220 231 238 234 111 177 218 353 58 101 143 152 142 113 108 115 117 117 118 118 115 118 121 120 131 159 166 165 166 162 152 144 138 136 133 131 129 126 124 124 124 120
231 248 241 233 238 68 78 56 45 32 96 106 121 127 133 133 129 127 124 119 115 117 120 125 126 120 112 132 156 157 155 149 140 132 128 124 121 120 124 126 127 125 126 126
204 230 245 242 218 148 130 127 103 90 104 105 115 129 140 145 142 138 132 126 120 119 124 125 123 117 105 97 116 130 136 137 133 128 123 122 120 118 115 116 121 126 129 129
232 212 230 237 228 211 180 155 128 112 111 110 109 115 134 146 149 146 139 132 126 116 113 116 121 120 114 111 113 121 131 133 129 124 122 120 117 114 106 93 82 99 87 106
225 230 238 246 186 246 162 145 151 146 123 110 108 107 109 127 137 137 135 130 126 119 114 116 118 118 117 117 116 120 129 131 129 124 123 121 119 116 113 107 89 66 76 73
Height
1503 1502 1498 1494 1494 1494 1495 1497 1496 1493 1489 1489 1486 1485 1484 1488 1490 1491 1494 1496 1499 1501 1503 1505 1507 1509 1511 1514 1517 1519 1522 1526 1529 1533 1537 1541 1545 1548 1551 1554 1557 1559 1562 1564
1501 1498 1491 1492 1495 1497 1498 1499 1495 1490 1488 1489 1486 1484 1482 1486 1488 1490 1492 1495 1497 1499 1502 1503 1505 1507 1509 1511 1514 1517 1520 1523 1527 1530 1535 1539 1543 1546 1549 1552 1554 1557 1560 1562
1492 1488 1489 1493 1496 1498 1496 1496 1493 1494 1489 1485 1487 1483 1481 1482 1487 1489 1491 1493 1495 1497 1499 1502 1503 1505 1507 1509 1512 1515 1517 1520 1524 1528 1533 1537 1540 1543 1547 1549 1552 1555 1557 1560
1489 1486 1490 1492 1493 1493 1495 1488 1491 1493 1493 1487 1489 1492 1479 1478 1481 1485 1488 1491 1493 1495 1498 1500 1502 1503 1505 1507 1510 1512 1515 1518 1521 1526 1530 1533 1536 1540 1543 1547 1550 1552 1555 1558
1485 1484 1488 1490 1488 1488 1487 1487 1490 1490 1491 1491 1485 1490 1479 1475 1478 1479 1484 1488 1491 1494 1496 1498 1500 1501 1503 1505 1508 1510 1513 1516 1519 1523 1527 1530 1534 1538 1541 1545 1547 1550 1553 1555
1478 1481 1483 1482 1482 1484 1486 1490 1490 1489 1487 1497 1487 1491 1485 1472 1475 1476 1481 1485 1489 1492 1495 1497 1499 1500 1502 1504 1506 1508 1511 1514 1517 1520 1524 1527 1531 1534 1538 1541 1544 1548 1551 1553
1482 1479 1479 1480 1482 1484 1486 1492 1498 1499 1496 1492 1482 1488 1481 1471 1474 1476 1479 1484 1487 1491 1493 1496 1498 1499 1501 1502 1504 1506 1509 1512 1515 1518 1521 1524 1528 1531 1534 1538 1541 1545 1548 1550
1481 1479 1473 1475 1477 1478 1482 1484 1495 1500 1495 1484 1485 1485 1472 1470 1474 1477 1479 1482 1486 1489 1492 1494 1496 1498 1500 1501 1503 1505 1507 1510 1513 1516 1519 1522 1525 1529 1532 1535 1538 1541 1545 1548
1469 1473 1467 1469 1471 1473 1479 1480 1472 1481 1484 1488 1479 1475 1468 1469 1472 1476 1478 1481 1484 1487 1491 1493 1496 1497 1499 1501 1503 1505 1507 1509 1512 1515 1517 1520 1522 1526 1529 1531 1535 1538 1541 1544
1461 1471 1465 1468 1471 1472 1470 1471 1477 1482 1495 1496 1485 1479 1472 1467 1469 1473 1476 1480 1483 1487 1490 1492 1495 1497 1499 1501 1502 1504 1506 1508 1511 1513 1515 1517 1520 1522 1525 1528 1531 1534 1537 1541
1460 1469 1467 1467 1469 1470 1475 1476 1474 1474 1475 1487 1489 1477 1458 1463 1467 1470 1474 1478 1482 1485 1488 1491 1494 1496 1498 1500 1502 1504 1505 1507 1509 1511 1513 1516 1518 1520 1522 1524 1527 1530 1534 1537
1460 1463 1465 1462 1459 1459 1463 1465 1471 1480 1481 1478 1479 1473 1458 1462 1466 1470 1473 1478 1481 1484 1487 1490 1493 1495 1497 1499 1501 1503 1504 1506 1508 1510 1512 1514 1515 1517 1520 1522 1524 1527 1530 1533
1459 1464 1473 1470 1468 1465 1463 1461 1463 1466 1470 1474 1478 1471 1460 1464 1467 1470 1474 1477 1481 1484 1487 1490 1492 1494 1496 1498 1500 1502 1503 1505 1507 1508 1510 1512 1514 1515 1517 1519 1522 1525 1528 1532
1459 1458 1461 1463 1456 1453 1460 1460 1460 1464 1468 1469 1468 1462 1460 1462 1465 1470 1474 1477 1480 1484 1486 1489 1491 1493 1495 1497 1498 1500 1502 1503 1505 1507 1509 1510 1512 1514 1516 1518 1521 1524 1527 1530
1457 1456 1454 1450 1448 1450 1452 1453 1456 1461 1458 1461 1458 1456 1453 1457 1463 1469 1473 1476 1479 1483 1485 1488 1490 1492 1494 1495 1497 1499 1500 1502 1503 1505 1507 1508 1510 1512 1515 1517 1519 1522 1525 1528
1456 1455 1454 1455 1451 1451 1453 1451 1452 1455 1454 1454 1454 1453 1453 1459 1465 1469 1472 1475 1478 1481 1484 1487 1489 1491 1492 1494 1495 1497 1499 1500 1501 1503 1505 1507 1509 1511 1513 1515 1518 1520 1523 1526
1452 1456 1458 1455 1450 1453 1458 1449 1449 1450 1449 1451 1454 1451 1455 1460 1464 1468 1472 1474 1477 1480 1483 1485 1487 1489 1490 1492 1494 1495 1497 1498 1500 1501 1503 1504 1507 1509 1511 1513 1516 1518 1521 1524
1455 1456 1454 1453 1457 1469 1448 1444 1445 1447 1447 1448 1450 1454 1457 1462 1467 1470 1472 1475 1477 1479 1481 1483 1485 1487 1489 1490 1492 1494 1495 1496 1498 1499 1501 1503 1505 1507 1509 1511 1514 1517 1520 1522
1454 1455 1453 1453 1457 1453 1448 1446 1447 1449 1449 1448 1451 1455 1460 1465 1468 1472 1474 1475 1477 1479 1480 1482 1484 1486 1487 1488 1490 1492 1493 1494 1496 1498 1499 1501 1503 1505 1507 1510 1512 1515 1518 1521
1454 1454 1454 1453 1459 1458 1444 1444 1449 1451 1452 1449 1452 1456 1460 1462 1460 1468 1474 1475 1477 1478 1480 1481 1483 1484 1485 1486 1488 1490 1491 1492 1494 1496 1498 1500 1502 1504 1506 1508 1511 1514 1516 1519
1451 1453 1453 1452 1454 1446 1443 1448 1451 1458 1452 1452 1454 1457 1460 1460 1462 1469 1472 1475 1476 1478 1479 1480 1481 1482 1484 1485 1486 1488 1489 1491 1493 1495 1497 1499 1501 1503 1505 1508 1510 1513 1516 1519
1445 1446 1450 1449 1453 1450 1448 1448 1450 1453 1455 1455 1457 1459 1462 1465 1467 1470 1472 1474 1476 1477 1478 1479 1480 1481 1482 1483 1484 1485 1487 1489 1491 1493 1495 1498 1500 1502 1505 1507 1509 1512 1515 1519
1443 1442 1439 1443 1447 1451 1452 1453 1456 1457 1457 1458 1460 1462 1463 1466 1468 1470 1472 1474 1475 1476 1477 1478 1479 1479 1480 1481 1482 1483 1485 1487 1489 1491 1493 1496 1499 1502 1504 1506 1509 1512 1515 1518
1444 1448 1446 1447 1446 1451 1454 1455 1457 1458 1459 1460 1461 1462 1464 1466 1468 1470 1472 1473 1474 1475 1476 1477 1477 1478 1478 1479 1480 1481 1483 1485 1487 1489 1492 1495 1498 1501 1504 1507 1510 1512 1515 1518
1443 1447 1445 1447 1448 1452 1454 1456 1457 1458 1459 1460 1461 1462 1464 1465 1467 1468 1470 1471 1472 1473 1474 1475 1475 1476 1477 1477 1478 1480 1481 1484 1486 1488 1491 1494 1497 1500 1503 1507 1510 1513 1516 1518
1445 1446 1446 1445 1449 1451 1453 1456 1458 1459 1459 1460 1461 1462 1463 1464 1466 1467 1468 1470 1471 1471 1472 1473 1473 1474 1475 1476 1477 1478 1480 1483 1485 1487 1491 1494 1497 1501 1504 1506 1510 1514 1517 1520